Regional Weather Roundup
Issued by NWS

Home | Current Version | Previous Version | Text Only | Print | Product List | Glossary On
Versions: 1 2 3 4 5 6 7 8 9 10 11 12 13 14 15 16 17 18 19 20 21 22 23 24 25 26 27 28 29 30 31 32 33 34 35 36 37 38 39 40 41 42 43 44 45 46 47 48 49 50
000
ASUS43 KLMK 310210
RWRKY
KENTUCKY REGIONAL WEATHER ROUNDUP
NATIONAL WEATHER SERVICE LOUISVILLE KY
1000 PM EDT WED JUL 30 2014

NOTE "FAIR" INDICATES FEW OR NO CLOUDS BELOW 12,000 FEET
WITH NO SIGNIFICANT WEATHER AND/OR OBSTRUCTIONS TO VISIBILITY.

KYZ001>023-026-027-061>063-070>075-310300-
WESTERN AND SOUTH CENTRAL KENTUCKY

CITY           SKY/WX    TMP DP  RH WIND       PRES   REMARKS
PADUCAH        MOCLDY    69  62  78 S3        30.05S
HENDERSON      MOCLDY    66  61  82 SW5       30.06R
OWENSBORO      MOCLDY    70  60  70 NW5       30.07R
HOPKINSVILLE   MOCLDY    73  55  53 NW6       30.07S
BOWLING GREEN  PTCLDY    74  55  51 CALM      30.08R
GLASGOW        MOCLDY    67  58  72 CALM      30.08R
$$

KYZ024-025-028>034-038-045-046-053-310300-
NORTH CENTRAL KENTUCKY

CITY           SKY/WX    TMP DP  RH WIND       PRES   REMARKS
LOUISVILLE/SDF PTCLDY    75  58  55 W6        30.06R
LOUISVILLE/LOU CLEAR     73  57  57 CALM      30.06R
FORT KNOX      PTCLDY    66  61  85 CALM      30.06R
$$

KYZ035>037-039>044-047>052-055>060-089>105-310300-
NORTHEAST KENTUCKY

CITY           SKY/WX    TMP DP  RH WIND       PRES   REMARKS
LEXINGTON      CLEAR     71  56  58 CALM      30.09R
COVINGTON      CLOUDY    70  59  68 CALM      30.07R
FRANKFORT      CLEAR     67  60  78 CALM      30.06R
$$

KYZ054-064>069-076>088-106>120-310300-
SOUTHEAST KENTUCKY

CITY           SKY/WX    TMP DP  RH WIND       PRES   REMARKS
JACKSON        CLEAR     69  57  65 CALM      30.11R
LONDON         PTCLDY    67  61  81 CALM      30.11R
SOMERSET       CLEAR     64  61  88 SE3       30.11R
MIDDLESBORO    MOCLDY    65  60  85 W3        30.12R
MONTICELLO     MOCLDY    64  62  93 CALM      30.12R
$$



USA.gov is the U.S. government's official web portal to all federal, state and local government web resources and services.